UAE250 WIII-WSSS

Flight info

Callsign UAE250
Flight time N/A
Altitude 32000
Route DOLT2B DOLTA G579 REPOV REPO2A
Aircraft B773/M-VGDW/C

Departure

Time 2026-04-30 12:48
Airport Soekarno-Hatta International Airport (WIII)

Arrival

Time N/A
Airport Singapore Changi Airport (WSSS)
Time Latitude Longitude Altitude Speed Heading
2026-04-30 12:02 -6.11632 106.66754 43 ft 0 kts 158°
2026-04-30 12:34 -6.11629 106.66753 43 ft 2 kts 158°
2026-04-30 12:34 -6.11614 106.66747 40 ft 3 kts 173°
2026-04-30 12:34 -6.11609 106.66746 42 ft 9 kts 160°
2026-04-30 12:34 -6.11573 106.66734 41 ft 5 kts 173°
2026-04-30 12:35 -6.11550 106.66735 43 ft 4 kts 195°
2026-04-30 12:35 -6.11531 106.66745 43 ft 3 kts 240°
2026-04-30 12:35 -6.11528 106.66751 43 ft 0 kts 249°
2026-04-30 12:40 -6.11551 106.66692 43 ft 22 kts 249°
2026-04-30 12:40 -6.11607 106.66554 43 ft 27 kts 248°
2026-04-30 12:41 -6.11642 106.66448 43 ft 14 kts 270°
2026-04-30 12:41 -6.11563 106.66375 43 ft 24 kts 335°
2026-04-30 12:41 -6.11457 106.66336 43 ft 12 kts 340°
2026-04-30 12:41 -6.11370 106.66289 43 ft 12 kts 306°
2026-04-30 12:42 -6.11371 106.66208 43 ft 14 kts 251°
2026-04-30 12:42 -6.11415 106.66094 43 ft 20 kts 249°
2026-04-30 12:42 -6.11471 106.65952 43 ft 23 kts 249°
2026-04-30 12:42 -6.11530 106.65801 43 ft 24 kts 249°
2026-04-30 12:43 -6.11591 106.65647 43 ft 24 kts 248°
2026-04-30 12:43 -6.11651 106.65494 43 ft 24 kts 248°
2026-04-30 12:43 -6.11713 106.65340 43 ft 24 kts 247°
2026-04-30 12:43 -6.11776 106.65187 44 ft 24 kts 248°
2026-04-30 12:44 -6.11838 106.65034 44 ft 24 kts 248°
2026-04-30 12:44 -6.11898 106.64882 44 ft 24 kts 248°
2026-04-30 12:44 -6.11958 106.64729 44 ft 24 kts 248°
2026-04-30 12:44 -6.12018 106.64575 44 ft 24 kts 249°
2026-04-30 12:45 -6.12079 106.64421 43 ft 24 kts 248°
2026-04-30 12:45 -6.12141 106.64270 44 ft 24 kts 247°
2026-04-30 12:45 -6.12203 106.64118 43 ft 24 kts 248°
2026-04-30 12:45 -6.12252 106.63990 44 ft 13 kts 254°
2026-04-30 12:46 -6.12230 106.63912 45 ft 6 kts 318°
2026-04-30 12:46 -6.12229 106.63912 45 ft 0 kts 319°
2026-04-30 12:46 -6.12216 106.63903 45 ft 9 kts 328°
2026-04-30 12:46 -6.12114 106.63915 46 ft 20 kts 34°
2026-04-30 12:47 -6.12028 106.64065 45 ft 32 kts 68°
2026-04-30 12:47 -6.11909 106.64362 44 ft 73 kts 68°
2026-04-30 12:47 -6.11613 106.65112 47 ft 159 kts 68°
2026-04-30 12:47 -6.11108 106.66371 171 ft 224 kts 68°
2026-04-30 12:48 -6.10550 106.67879 1212 ft 229 kts 70°
2026-04-30 12:48 -6.09992 106.69302 2799 ft 212 kts 65°
2026-04-30 12:48 -6.09071 106.70466 3840 ft 222 kts 32°
2026-04-30 12:48 -6.07655 106.71186 4715 ft 239 kts 24°